Regional Weather Roundup
Issued by NWS

Home | Current Version | Previous Version | Text Only | Print | Product List | Glossary Off
Versions: 1 2 3 4 5 6 7 8 9 10 11 12 13 14 15 16 17 18 19 20 21 22 23 24 25 26 27 28 29 30 31 32 33 34 35 36 37 38 39 40 41 42 43 44 45 46 47 48 49 50

000
ASUS45 KCYS 271210
RWRWY

WYOMING REGIONAL WEATHER ROUNDUP
NATIONAL WEATHER SERVICE CHEYENNE WY
600 AM MDT MON MAR 27 2017

NOTE:  "FAIR" INDICATES FEW OR NO CLOUDS BELOW 12,000 FEET
WITH NO SIGNIFICANT WEATHER AND/OR OBSTRUCTIONS TO VISIBILITY.

WYZ001-271300-
YELLOWSTONE NATIONAL PARK

CITY           SKY/WX    TMP DP  RH WIND       PRES   REMARKS
LK YELLOWSTONE   N/A     28  27  96 CALM      29.89S
6HR MIN TEMP:  27; 6HR MAX TEMP:  28; 6HR PCP:  0.06;

W YELLOWSTONE  NOT AVBL

$$
WYZ002>013-054>058-071-098>099-271300-
NORTHERN WYOMING

CITY           SKY/WX    TMP DP  RH WIND       PRES   REMARKS
JACKSON        CLOUDY    30  30 100 SW6       29.90S WCI  24
CODY           FAIR      37  24  59 S6        29.83S WCI  32
GREYBULL       FAIR      40  32  73 CALM      29.81S
6HR MIN TEMP:  40; 6HR MAX TEMP:  48;

WORLAND        FAIR      35  32  88 CALM      29.82S
6HR MIN TEMP:  35; 6HR MAX TEMP:  45;

SHERIDAN       FAIR      40  34  79 W7        29.82R
6HR MIN TEMP:  40; 6HR MAX TEMP:  43;

BUFFALO        CLOUDY    39  31  72 NW7       29.82R WCI  34
6HR MIN TEMP:  38; 6HR MAX TEMP:  43;

GILLETTE       FAIR      35  32  88 SE5       29.83R WCI  31
6HR MIN TEMP:  35; 6HR MAX TEMP:  40;

HULETT         FAIR      34  32  93 CALM      29.87R
NEWCASTLE      PTSUNNY   32  32 100 CALM      29.87S

$$
WYZ014>020-022>026-101>103-271300-
CENTRAL WYOMING

CITY           SKY/WX    TMP DP  RH WIND       PRES   REMARKS
BIG PINEY      FAIR      24  22  91 W3        29.94R
6HR MIN TEMP:  24; 6HR MAX TEMP:  32;

PINEDALE       FAIR      27  27 100 CALM      29.93F
DUBOIS         FAIR      32  21  64 N12       29.85F WCI  23
LANDER         FAIR      36  21  54 SE5       29.85S WCI  32
6HR MIN TEMP:  33; 6HR MAX TEMP:  44;

RIVERTON       FAIR      33  24  69 W6        29.86S WCI  28
6HR MIN TEMP:  31; 6HR MAX TEMP:  43;

CASPER         FAIR      37  27  67 SW17      29.84S WCI  27
6HR MIN TEMP:  33; 6HR MAX TEMP:  40;

DOUGLAS        FAIR      30  28  92 SE8       29.86S WCI  22
6HR MIN TEMP:  30; 6HR MAX TEMP:  38;


$$
WYZ021-027>030-104>119-271300-
SOUTHERN WYOMING

CITY           SKY/WX    TMP DP  RH WIND       PRES   REMARKS
EVANSTON       FLURRIES  34  25  69 SW7       29.92S WCI  28
6HR MIN TEMP:  33; 6HR MAX TEMP:  36; 6HR PCP: TRACE;

KEMMERER         N/A     30  27  86 N6        29.93F WCI  24
ROCK SPRINGS   CLOUDY    35  25  66 NW6       29.93F WCI  30
6HR MIN TEMP:  35; 6HR MAX TEMP:  38;

DIXON            N/A     33  27  77 E3        29.97F
RAWLINS        CLOUDY    35  23  61 W5        29.93F WCI  31
6HR MIN TEMP:  32; 6HR MAX TEMP:  36;

SARATOGA       CLOUDY    30  25  80 SE6       29.95S WCI  24
LARAMIE        MOCLDY    26  22  84 SE6       29.92S WCI  19
6HR MIN TEMP:  26; 6HR MAX TEMP:  31;

CHEYENNE       FAIR      30  27  88 W6        29.92S WCI  24
6HR MIN TEMP:  29; 6HR MAX TEMP:  35;

TORRINGTON     FAIR      28  27  96 CALM      29.89S FOG
6HR MIN TEMP:  26; 6HR MAX TEMP:  34;

PINE BLUFFS    FAIR      21  19  93 S3        29.93S

$$



USA.gov is the U.S. government's official web portal to all federal, state and local government web resources and services.